| time (UTC) | temp F | wind direction | speed MPH | gust MPH | rain 1hr in | rain 24hr in | rain mn in | humidity % | barometer mb |
| 20260505041746 | 51 | 68 | 0.0 | 0.0 | 0.00 | 0.00 | 0.00 | 95 | 998.4 |
| 20260505041243 | 51 | 68 | 0.0 | 0.0 | 0.00 | 0.00 | 0.00 | 96 | 998.5 |
| 20260505040730 | 51 | 68 | 0.0 | 0.0 | 0.00 | 0.00 | 0.00 | 96 | 998.7 |
| 20260505040229 | 51 | 68 | 0.0 | 0.0 | 0.00 | 0.00 | 0.00 | 95 | 998.6 |
| 20260505035801 | 51 | 68 | 0.0 | 0.0 | 0.00 | 0.00 | 0.00 | 95 | 998.5 |
| 20260505035229 | 52 | 68 | 0.0 | 0.0 | 0.00 | 0.00 | 0.00 | 95 | 998.6 |
| 20260505034728 | 52 | 68 | 0.0 | 0.0 | 0.00 | 0.00 | 0.00 | 95 | 998.6 |
| 20260505034226 | 52 | 68 | 0.0 | 0.0 | 0.00 | 0.00 | 0.00 | 95 | 998.7 |
| 20260505033723 | 52 | 68 | 0.0 | 0.0 | 0.00 | 0.00 | 0.00 | 95 | 998.9 |
| 20260505033220 | 52 | 68 | 0.0 | 0.0 | 0.00 | 0.00 | 0.00 | 94 | 999.0 |
| 20260505032717 | 52 | 68 | 0.0 | 0.0 | 0.00 | 0.00 | 0.00 | 94 | 998.8 |
| 20260505031711 | 52 | 68 | 0.0 | 0.0 | 0.00 | 0.00 | 0.00 | 94 | 998.9 |
| 20260505031209 | 51 | 68 | 0.0 | 0.0 | 0.00 | 0.00 | 0.00 | 94 | 998.6 |
| 20260505030708 | 52 | 68 | 0.0 | 0.0 | 0.00 | 0.00 | 0.00 | 93 | 998.9 |
| 20260505030208 | 52 | 68 | 0.0 | 0.0 | 0.00 | 0.00 | 0.00 | 93 | 998.7 |
| 20260505025708 | 52 | 68 | 0.0 | 0.0 | 0.00 | 0.00 | 0.00 | 93 | 998.7 |
| 20260505025208 | 52 | 68 | 0.0 | 0.0 | 0.00 | 0.00 | 0.00 | 92 | 998.8 |
| 20260505024708 | 52 | 68 | 0.0 | 0.0 | 0.00 | 0.00 | 0.00 | 93 | 998.5 |
| 20260505024209 | 53 | 68 | 0.0 | 0.0 | 0.00 | 0.00 | 0.00 | 92 | 998.5 |
| 20260505023708 | 53 | 68 | 0.0 | 0.0 | 0.00 | 0.00 | 0.00 | 92 | 998.6 |
| 20260505023208 | 53 | 68 | 0.0 | 0.0 | 0.00 | 0.00 | 0.00 | 92 | 998.3 |
| 20260505022707 | 53 | 68 | 0.0 | 0.0 | 0.00 | 0.00 | 0.00 | 92 | 998.3 |
| 20260505022223 | 53 | 68 | 0.0 | 0.0 | 0.00 | 0.00 | 0.00 | 92 | 998.3 |
| 20260505021708 | 53 | 68 | 0.0 | 0.0 | 0.00 | 0.00 | 0.00 | 92 | 998.3 |
| 20260505021214 | 53 | 68 | 0.0 | 0.0 | 0.00 | 0.00 | 0.00 | 91 | 998.3 |
| 20260505015708 | 54 | 68 | 0.0 | 0.0 | 0.00 | 0.00 | 0.00 | 91 | 998.0 |
| 20260505015211 | 54 | 68 | 0.0 | 0.0 | 0.00 | 0.00 | 0.00 | 90 | 998.1 |
| 20260505014212 | 55 | 68 | 0.0 | 0.0 | 0.00 | 0.00 | 0.00 | 89 | 998.0 |
| 20260505013708 | 55 | 68 | 0.0 | 0.0 | 0.00 | 0.00 | 0.00 | 89 | 997.9 |
| 20260505012711 | 55 | 68 | 0.0 | 0.0 | 0.00 | 0.00 | 0.00 | 88 | 997.6 |
| 20260505012212 | 56 | 68 | 0.0 | 0.0 | 0.00 | 0.00 | 0.00 | 88 | 997.8 |
| 20260505011708 | 56 | 68 | 0.0 | 0.0 | 0.00 | 0.00 | 0.00 | 87 | 997.9 |
| 20260505011213 | 56 | 68 | 0.0 | 0.0 | 0.00 | 0.00 | 0.00 | 86 | 997.9 |
| 20260505010708 | 56 | 68 | 0.0 | 0.0 | 0.00 | 0.00 | 0.00 | 86 | 997.7 |
| 20260505010210 | 57 | 90 | 0.0 | 0.0 | 0.00 | 0.00 | 0.00 | 86 | 997.6 |
| 20260505005708 | 57 | 90 | 0.0 | 0.0 | 0.00 | 0.00 | 0.00 | 86 | 997.7 |
| 20260505004703 | 57 | 90 | 0.0 | 0.0 | 0.00 | 0.00 | 0.00 | 86 | 997.4 |
| 20260505004200 | 56 | 68 | 0.0 | 0.0 | 0.00 | 0.00 | 0.00 | 87 | 997.3 |
| 20260505003657 | 56 | 23 | 0.0 | 0.0 | 0.00 | 0.00 | 0.00 | 85 | 997.3 |
| 20260505003156 | 57 | 23 | 0.0 | 0.0 | 0.00 | 0.00 | 0.00 | 84 | 997.3 |
| 20260505002652 | 57 | 23 | 0.0 | 0.0 | 0.00 | 0.00 | 0.00 | 84 | 997.0 |
| 20260505002151 | 57 | 23 | 0.0 | 0.0 | 0.00 | 0.00 | 0.00 | 84 | 997.2 |
| 20260505001646 | 57 | 45 | 0.0 | 0.0 | 0.00 | 0.00 | 0.00 | 84 | 996.9 |
| 20260505001144 | 57 | 45 | 0.0 | 0.0 | 0.00 | 0.00 | 0.00 | 85 | 997.0 |
| 20260505000640 | 57 | 45 | 0.0 | 0.0 | 0.00 | 0.00 | 0.00 | 85 | 996.9 |
| 20260505000138 | 57 | 45 | 0.0 | 0.0 | 0.00 | 0.00 | 0.00 | 84 | 997.1 |
| 20260504235636 | 57 | 45 | 0.0 | 0.0 | 0.00 | 0.00 | 0.00 | 84 | 997.0 |
| 20260504235136 | 57 | 45 | 0.0 | 0.0 | 0.00 | 0.00 | 0.00 | 83 | 996.9 |
| 20260504234637 | 57 | 45 | 0.0 | 0.0 | 0.00 | 0.00 | 0.00 | 83 | 996.8 |
| 20260504234140 | 58 | 45 | 0.0 | 0.0 | 0.00 | 0.00 | 0.00 | 82 | 997.0 |
| 20260504233636 | 58 | 45 | 0.0 | 0.0 | 0.00 | 0.00 | 0.00 | 82 | 996.9 |
| 20260504233136 | 58 | 45 | 0.0 | 0.0 | 0.00 | 0.00 | 0.00 | 82 | 997.1 |
| 20260504232636 | 58 | 45 | 0.0 | 0.0 | 0.00 | 0.00 | 0.00 | 81 | 996.8 |
| 20260504232136 | 59 | 45 | 0.0 | 0.0 | 0.00 | 0.00 | 0.00 | 80 | 996.9 |
| 20260504231636 | 59 | 45 | 0.0 | 0.0 | 0.00 | 0.00 | 0.00 | 79 | 996.9 |
| 20260504230636 | 60 | 45 | 0.0 | 0.0 | 0.00 | 0.00 | 0.00 | 78 | 996.7 |
| 20260504230137 | 60 | 45 | 0.0 | 0.0 | 0.00 | 0.00 | 0.00 | 79 | 996.8 |
| 20260504225636 | 59 | 45 | 0.0 | 0.0 | 0.00 | 0.00 | 0.00 | 79 | 996.7 |
| 20260504224636 | 59 | 45 | 0.0 | 0.0 | 0.00 | 0.00 | 0.00 | 78 | 996.6 |
| 20260504224136 | 59 | 45 | 0.0 | 0.0 | 0.00 | 0.00 | 0.00 | 78 | 996.7 |
| 20260504223636 | 59 | 45 | 0.0 | 0.0 | 0.00 | 0.00 | 0.00 | 79 | 996.6 |
| 20260504222636 | 59 | 45 | 0.0 | 0.0 | 0.00 | 0.00 | 0.00 | 77 | 996.3 |
| 20260504222137 | 60 | 45 | 0.0 | 0.0 | 0.00 | 0.00 | 0.00 | 76 | 996.1 |
| 20260504221636 | 60 | 45 | 0.0 | 0.0 | 0.00 | 0.00 | 0.00 | 76 | 996.1 |
| 20260504221136 | 60 | 45 | 0.0 | 0.0 | 0.00 | 0.00 | 0.00 | 75 | 996.1 |
| 20260504220636 | 61 | 45 | 0.0 | 0.0 | 0.00 | 0.00 | 0.00 | 73 | 996.1 |
| 20260504215636 | 62 | 45 | 0.0 | 0.0 | 0.00 | 0.00 | 0.00 | 72 | 996.0 |
| 20260504215136 | 63 | 45 | 0.0 | 0.0 | 0.00 | 0.00 | 0.00 | 71 | 995.8 |
| 20260504214636 | 63 | 45 | 0.0 | 0.0 | 0.00 | 0.00 | 0.00 | 70 | 995.6 |
| 20260504214137 | 64 | 45 | 0.0 | 0.0 | 0.00 | 0.00 | 0.00 | 68 | 995.7 |
| 20260504212636 | 68 | 45 | 0.0 | 0.0 | 0.00 | 0.00 | 0.00 | 64 | 995.7 |
| 20260504211636 | 70 | 45 | 0.0 | 0.0 | 0.00 | 0.00 | 0.00 | 61 | 995.7 |
| 20260504211136 | 71 | 45 | 0.0 | 0.0 | 0.00 | 0.00 | 0.00 | 59 | 995.5 |
| 20260504210636 | 71 | 45 | 0.0 | 0.0 | 0.00 | 0.00 | 0.00 | 58 | 995.7 |
| 20260504210136 | 72 | 45 | 0.0 | 0.0 | 0.00 | 0.00 | 0.00 | 57 | 995.7 |
| 20260504205136 | 73 | 23 | 0.0 | 0.0 | 0.00 | 0.00 | 0.00 | 55 | 995.6 |
| 20260504204636 | 74 | 0 | 0.0 | 0.0 | 0.00 | 0.00 | 0.00 | 54 | 995.8 |
| 20260504204136 | 74 | 0 | 0.0 | 0.0 | 0.00 | 0.00 | 0.00 | 53 | 995.9 |
| 20260504203635 | 74 | 23 | 0.0 | 0.0 | 0.00 | 0.00 | 0.00 | 52 | 995.7 |
| 20260504203136 | 75 | 0 | 0.0 | 0.0 | 0.00 | 0.00 | 0.00 | 53 | 995.4 |
| 20260504202636 | 75 | 23 | 0.0 | 0.0 | 0.00 | 0.00 | 0.00 | 52 | 995.6 |
| 20260504202137 | 75 | 0 | 0.0 | 0.0 | 0.00 | 0.00 | 0.00 | 51 | 995.7 |
| 20260504201636 | 76 | 338 | 0.0 | 0.0 | 0.00 | 0.00 | 0.00 | 51 | 995.7 |
| 20260504201137 | 76 | 23 | 0.0 | 0.0 | 0.00 | 0.00 | 0.00 | 50 | 995.6 |
| 20260504200632 | 76 | 23 | 0.0 | 0.0 | 0.00 | 0.00 | 0.00 | 50 | 995.8 |
| 20260504200132 | 76 | 68 | 0.0 | 0.0 | 0.00 | 0.00 | 0.00 | 50 | 995.7 |
| 20260504195632 | 76 | 45 | 0.0 | 0.0 | 0.00 | 0.00 | 0.00 | 50 | 995.7 |
| 20260504195132 | 76 | 45 | 0.0 | 0.0 | 0.00 | 0.00 | 0.00 | 50 | 995.6 |
| 20260504194633 | 76 | 338 | 0.0 | 0.0 | 0.00 | 0.00 | 0.00 | 49 | 995.7 |
| 20260504194133 | 76 | 45 | 0.0 | 0.0 | 0.00 | 0.00 | 0.00 | 49 | 995.8 |
| 20260504193632 | 76 | 0 | 0.0 | 0.0 | 0.00 | 0.00 | 0.00 | 49 | 995.9 |
| 20260504193132 | 77 | 0 | 0.0 | 0.0 | 0.00 | 0.00 | 0.00 | 48 | 995.8 |
| 20260504192632 | 76 | 23 | 0.0 | 0.0 | 0.00 | 0.00 | 0.00 | 49 | 995.7 |
| 20260504192133 | 77 | 45 | 0.0 | 0.0 | 0.00 | 0.00 | 0.00 | 48 | 995.9 |
| 20260504191632 | 77 | 315 | 0.0 | 0.0 | 0.00 | 0.00 | 0.00 | 48 | 995.9 |
| 20260504191133 | 77 | 45 | 0.0 | 0.0 | 0.00 | 0.00 | 0.00 | 47 | 995.8 |
| 20260504190632 | 77 | 0 | 0.0 | 0.0 | 0.00 | 0.00 | 0.00 | 48 | 996.0 |
| 20260504190133 | 77 | 68 | 0.0 | 0.0 | 0.00 | 0.00 | 0.00 | 47 | 996.0 |
| 20260504185132 | 76 | 68 | 0.0 | 0.0 | 0.00 | 0.00 | 0.00 | 47 | 996.3 |
| 20260504184632 | 77 | 23 | 0.0 | 0.0 | 0.00 | 0.00 | 0.00 | 47 | 996.1 |
| 20260504184132 | 77 | 338 | 0.0 | 0.0 | 0.00 | 0.00 | 0.00 | 47 | 996.2 |
| 20260504183632 | 77 | 23 | 0.0 | 0.0 | 0.00 | 0.00 | 0.00 | 47 | 996.4 |
| 20260504183129 | 77 | 0 | 0.0 | 0.0 | 0.00 | 0.00 | 0.00 | 46 | 996.4 |
| 20260504182627 | 77 | 23 | 0.0 | 0.0 | 0.00 | 0.00 | 0.00 | 46 | 996.5 |
| 20260504182123 | 77 | 315 | 0.0 | 0.0 | 0.00 | 0.00 | 0.00 | 46 | 996.6 |
| 20260504181620 | 77 | 23 | 0.0 | 0.0 | 0.00 | 0.00 | 0.00 | 46 | 996.4 |
| 20260504181117 | 77 | 45 | 0.0 | 0.0 | 0.00 | 0.00 | 0.00 | 45 | 996.5 |
| 20260504180605 | 77 | 23 | 0.0 | 0.0 | 0.00 | 0.00 | 0.00 | 45 | 996.7 |
| 20260504180105 | 76 | 0 | 0.0 | 0.0 | 0.00 | 0.00 | 0.00 | 46 | 996.9 |
| 20260504175605 | 76 | 45 | 0.0 | 0.0 | 0.00 | 0.00 | 0.00 | 46 | 997.0 |
| 20260504175104 | 77 | 45 | 0.0 | 0.0 | 0.00 | 0.00 | 0.00 | 45 | 997.0 |
| 20260504174604 | 76 | 45 | 0.0 | 0.0 | 0.00 | 0.00 | 0.00 | 46 | 997.1 |
| 20260504174104 | 76 | 68 | 0.0 | 0.0 | 0.00 | 0.00 | 0.00 | 45 | 997.0 |
| 20260504173605 | 77 | 0 | 0.0 | 0.0 | 0.00 | 0.00 | 0.00 | 45 | 997.1 |
| 20260504173105 | 76 | 23 | 0.0 | 0.0 | 0.00 | 0.00 | 0.00 | 45 | 997.3 |
| 20260504172604 | 76 | 23 | 0.0 | 0.0 | 0.00 | 0.00 | 0.00 | 44 | 997.6 |
| 20260504172104 | 76 | 45 | 0.0 | 0.0 | 0.00 | 0.00 | 0.00 | 45 | 997.6 |
| 20260504171604 | 76 | 45 | 0.0 | 0.0 | 0.00 | 0.00 | 0.00 | 45 | 997.4 |
| 20260504171105 | 75 | 23 | 0.0 | 0.0 | 0.00 | 0.00 | 0.00 | 45 | 997.6 |
| 20260504170604 | 75 | 0 | 0.0 | 0.0 | 0.00 | 0.00 | 0.00 | 45 | 997.9 |
| 20260504170104 | 76 | 45 | 0.0 | 0.0 | 0.00 | 0.00 | 0.00 | 45 | 997.8 |
| 20260504160108 | 73 | 0 | 0.0 | 0.0 | 0.00 | 0.00 | 0.00 | 47 | 998.9 |
| 20260504150607 | 69 | 23 | 0.0 | 0.0 | 0.00 | 0.00 | 0.00 | 50 | 999.7 |
| 20260504150108 | 69 | 45 | 0.0 | 0.0 | 0.00 | 0.00 | 0.00 | 51 | 999.7 |
| 20260504141108 | 65 | 23 | 0.0 | 0.0 | 0.00 | 0.00 | 0.00 | 59 | 1000.4 |
| 20260504140608 | 64 | 23 | 0.0 | 0.0 | 0.00 | 0.00 | 0.00 | 59 | 1000.6 |
| 20260504140107 | 63 | 0 | 0.0 | 0.0 | 0.00 | 0.00 | 0.00 | 61 | 1000.7 |
| 20260504130603 | 57 | 45 | 0.0 | 0.0 | 0.00 | 0.00 | 0.00 | 71 | 1000.5 |
| 20260504130105 | 57 | 0 | 0.0 | 0.0 | 0.00 | 0.00 | 0.00 | 72 | 1000.3 |
| 20260504120104 | 48 | 45 | 0.0 | 0.0 | 0.00 | 0.00 | 0.00 | 86 | 1000.4 |
| 20260504110604 | 39 | 68 | 0.0 | 0.0 | 0.00 | 0.00 | 0.00 | 93 | 999.9 |
| 20260504110104 | 39 | 68 | 0.0 | 0.0 | 0.00 | 0.00 | 0.00 | 94 | 999.7 |
| 20260504100546 | 38 | 68 | 0.0 | 0.0 | 0.00 | 0.00 | 0.00 | 94 | 1000.2 |
| 20260504081536 | 40 | 68 | 0.0 | 0.0 | 0.00 | 0.00 | 0.00 | 93 | 999.8 |
| 20260504081036 | 40 | 68 | 0.0 | 0.0 | 0.00 | 0.00 | 0.00 | 93 | 999.7 |
| 20260504080533 | 39 | 68 | 0.0 | 0.0 | 0.00 | 0.00 | 0.00 | 93 | 999.5 |
| 20260504050505 | 41 | 45 | 0.0 | 0.0 | 0.00 | 0.00 | 0.00 | 87 | 1001.0 |
| 20260504045005 | 42 | 45 | 0.0 | 0.0 | 0.00 | 0.00 | 0.00 | 85 | 1001.1 |